Epoch 2020 Mar. 12.0 TT = JDT 2458920.5
T 2020 Mar. 22.22652 TT Rudenko
q 1.6998010 (2000.0) P Q
n 0.07060996 Peri. 232.33601 +0.88996510 -0.43132766
a 5.7972950 Node 152.28075 +0.44896145 +0.88564823
e 0.7067941 Incl. 18.55954 -0.07997339 +0.17199904
P 14.0
From 270 observations 2006 Nov. 16-2021 Jan. 21, mean residual 0".8.